QPF
0.00 0.00 0.00 0.00 0.00 0.00 0.00 0.00 0.00 0.00 0.00 0.00 0.00 0.00 0.00 0.00 0.00 0.00 0.00 0.00 0.00 0.00 0.00 0.00 0.00 0.00 0.00 0.00 0.00 0.00 0.00 0.00 0.00 0.00 0.00 0.00 0.00 0.00 0.00 0.00 0.00 0.00 0.00 0.00
0.00 0.00 0.00 0.00 0.00 0.00 0.00 0.00 0.00 0.00 0.00 0.00 0.00 0.00 0.00 0.00 0.00 0.00 0.00 0.00 0.00 0.00 0.00 0.00 0.00 0.00 0.00 0.00 0.00 0.00 0.00 0.00 0.00 0.00 0.00 0.00 0.00 0.00 0.00 0.00 0.00 0.00 0.00 0.00
0.00 0.00 0.00 0.00 0.00 0.00 0.00 0.00 0.00 0.00 0.00 0.00 0.00 0.00 0.00 0.00 0.00 0.00 0.00 0.00 0.00 0.00 0.00 0.00 0.00 0.00 0.00 0.00 0.00 0.00 0.00 0.00 0.00 0.00 0.00 0.00 0.00 0.00 0.00 0.00 0.00 0.00 0.00 0.00
0.00 0.00 0.00 0.00 0.00 0.00 0.00 0.00 0.00 0.00 0.00 0.00 0.00 0.00 0.00 0.00 0.00 0.00 0.00 0.00 0.00 0.00 0.00 0.00 0.00 0.00 0.00 0.00 0.00 0.00 0.00 0.00 0.00 0.00 0.00 0.00 0.00 0.00 0.00 0.00 0.00 0.00 0.00 0.00
0.00 0.00 0.00 0.00 0.00 0.00 0.00 0.00 0.00 0.00 0.00 0.00 0.00 0.00 0.00 0.00 0.00 0.00 0.00 0.00 0.00 0.00 0.00 0.00 0.00 0.00 0.00 0.00 0.00 0.00 0.00 0.00 0.00 0.00 0.00 0.00 0.00 0.00 0.00 0.00 0.00 0.00 0.00 0.00
0.00 0.00 0.00 0.00 0.00 0.00 0.00 0.00 0.01 0.01 0.01 0.00 0.00 0.00 0.00 0.00 0.00 0.00 0.00 0.00 0.00 0.00 0.00 0.00 0.00 0.00 0.00 0.00 0.00 0.00 0.00 0.00 0.00 0.00 0.00 0.00 0.00 0.00 0.00 0.00 0.00 0.00 0.00 0.00
0.00 0.00 0.00 0.00 0.00 0.00 0.00 0.01 0.01 0.01 0.00 0.00 0.00 0.00 0.00 0.00 0.00 0.00 0.00 0.00 0.00 0.00 0.00 0.00 0.00 0.00 0.00 0.00 0.00 0.00 0.00 0.00 0.00 0.00 0.00 0.00 0.00 0.00 0.00 0.00 0.00 0.00 0.00 0.00
0.00 0.00 0.00 0.00 0.00 0.00 0.00 0.00 0.00 0.00 0.00 0.00 0.00 0.00 0.00 0.00 0.00 0.00 0.00 0.00 0.00 0.00 0.00 0.00 0.00 0.00 0.00 0.00 0.00 0.00 0.00 0.00 0.00 0.00 0.00 0.00 0.00 0.00 0.00 0.00 0.00 0.00 0.00 0.00
0.00 0.00 0.00 0.00 0.00 0.00 0.01 0.01 0.00 0.00 0.00 0.00 0.00 0.00 0.00 0.00 0.00 0.00 0.00 0.00 0.00 0.00 0.00 0.00 0.00 0.00 0.00 0.00 0.00 0.00 0.00 0.00 0.00 0.00 0.00 0.00 0.00 0.00 0.00 0.00 0.00 0.00 0.00 0.00
0.00 0.00 0.00 0.00 0.00 0.00 0.00 0.00 0.01 0.01 0.00 0.00 0.00 0.00 0.00 0.00 0.00 0.00 0.00 0.00 0.00 0.00 0.00 0.00 0.00 0.00 0.00 0.00 0.00 0.00 0.00 0.00 0.00 0.00 0.00 0.00 0.00 0.00 0.00 0.00 0.00 0.00 0.00 0.00
0.00 0.00 0.00 0.01 0.01 0.00 0.00 0.01 0.01 0.01 0.00 0.00 0.00 0.00 0.00 0.00 0.00 0.00 0.00 0.00 0.00 0.00 0.00 0.00 0.00 0.00 0.00 0.00 0.00 0.00 0.00 0.00 0.00 0.00 0.00 0.00 0.00 0.00 0.00 0.00 0.00 0.00 0.00 0.00
0.00 0.00 0.00 0.00 0.00 0.00 0.01 0.00 0.01 0.00 0.00 0.00 0.00 0.00 0.00 0.00 0.00 0.00 0.00 0.00 0.00 0.00 0.00 0.00 0.00 0.00 0.00 0.00 0.00 0.00 0.00 0.00 0.00 0.00 0.00 0.00 0.00 0.00 0.00 0.00 0.00 0.00 0.00 0.00
0.00 0.01 0.00 0.00 0.00 0.00 0.01 0.01 0.02 0.02 0.04 0.02 0.01 0.00 0.00 0.00 0.00 0.00 0.00 0.00 0.00 0.00 0.00 0.00 0.00 0.00 0.00 0.00 0.00 0.00 0.00 0.00 0.00 0.00 0.00 0.00 0.00 0.00 0.00 0.00 0.00 0.00 0.00 0.00
0.02 0.01 0.00 0.00 0.00 0.00 0.00 0.00 0.00 0.04 0.05 0.01 0.00 0.00 0.00 0.00 0.00 0.00 0.00 0.00 0.00 0.00 0.00 0.00 0.00 0.00 0.00 0.00 0.00 0.00 0.00 0.00 0.00 0.00 0.00 0.00 0.00 0.00 0.00 0.00 0.00 0.00 0.00 0.00
0.04 0.01 0.00 0.00 0.00 0.00 0.00 0.00 0.01 0.04 0.00 0.00 0.00 0.00 0.00 0.00 0.00 0.00 0.00 0.00 0.00 0.00 0.00 0.00 0.00 0.00 0.00 0.00 0.00 0.00 0.00 0.00 0.00 0.00 0.00 0.00 0.00 0.00 0.00 0.00 0.00 0.00 0.00 0.00
0.04 0.01 0.01 0.00 0.00 0.00 0.00 0.01 0.01 0.00 0.00 0.01 0.00 0.00 0.00 0.00 0.00 0.00 0.00 0.00 0.00 0.00 0.00 0.00 0.00 0.00 0.00 0.00 0.00 0.00 0.00 0.00 0.00 0.00 0.00 0.00 0.00 0.00 0.00 0.00 0.00 0.00 0.00 0.00
0.03 0.01 0.02 0.01 0.00 0.02 0.06 0.00 0.00 0.00 0.00 0.00 0.00 0.00 0.00 0.00 0.00 0.00 0.00 0.00 0.00 0.00 0.00 0.00 0.00 0.00 0.00 0.00 0.00 0.00 0.00 0.00 0.00 0.00 0.00 0.00 0.00 0.00 0.00 0.00 0.00 0.00 0.00 0.00
0.01 0.01 0.03 0.01 0.00 0.04 0.01 0.00 0.00 0.00 0.00 0.00 0.00 0.00 0.00 0.00 0.00 0.00 0.00 0.00 0.00 0.00 0.00 0.00 0.00 0.00 0.00 0.00 0.00 0.00 0.00 0.00 0.00 0.00 0.00 0.00 0.00 0.00 0.00 0.00 0.00 0.00 0.00 0.00
0.00 0.01 0.04 0.03 0.01 0.01 0.00 0.00 0.00 0.00 0.00 0.00 0.00 0.00 0.00 0.00 0.00 0.00 0.00 0.00 0.00 0.00 0.00 0.00 0.00 0.00 0.00 0.00 0.00 0.00 0.00 0.00 0.00 0.00 0.00 0.00 0.00 0.00 0.00 0.00 0.00 0.00 0.00 0.00
0.00 0.00 0.02 0.02 0.02 0.01 0.00 0.00 0.00 0.01 0.03 0.00 0.00 0.00 0.00 0.00 0.00 0.00 0.00 0.00 0.00 0.00 0.00 0.00 0.00 0.00 0.00 0.00 0.00 0.00 0.00 0.00 0.00 0.00 0.00 0.00 0.00 0.00 0.00 0.00 0.00 0.00 0.00 0.00
0.00 0.00 0.00 0.00 0.01 0.00 0.00 0.00 0.00 0.01 0.00 0.00 0.00 0.00 0.00 0.00 0.00 0.00 0.00 0.00 0.00 0.00 0.00 0.00 0.00 0.00 0.00 0.00 0.00 0.00 0.00 0.00 0.00 0.00 0.00 0.00 0.00 0.00 0.00 0.00 0.00 0.00 0.00 0.00
0.00 0.00 0.00 0.00 0.00 0.00 0.00 0.00 0.00 0.00 0.00 0.00 0.00 0.00 0.00 0.00 0.00 0.00 0.00 0.00 0.00 0.00 0.00 0.00 0.00 0.00 0.00 0.00 0.00 0.00 0.00 0.00 0.00 0.00 0.00 0.00 0.00 0.00 0.00 0.00 0.00 0.00 0.00 0.00
0.00 0.00 0.00 0.00 0.00 0.00 0.00 0.00 0.00 0.00 0.00 0.00 0.00 0.00 0.00 0.00 0.00 0.00 0.00 0.00 0.00 0.00 0.00 0.00 0.00 0.00 0.00 0.00 0.00 0.00 0.00 0.00 0.00 0.00 0.00 0.00 0.00 0.00 0.00 0.00 0.00 0.00 0.00 0.00
0.00 0.00 0.00 0.00 0.00 0.00 0.00 0.00 0.00 0.00 0.00 0.00 0.00 0.00 0.00 0.00 0.00 0.00 0.00 0.00 0.00 0.00 0.00 0.00 0.00 0.00 0.00 0.00 0.00 0.00 0.00 0.00 0.00 0.00 0.00 0.00 0.00 0.00 0.00 0.00 0.00 0.00 0.00 0.00
0.00 0.01 0.01 0.01 0.00 0.00 0.00 0.00 0.00 0.00 0.00 0.00 0.00 0.00 0.00 0.00 0.00 0.00 0.00 0.00 0.00 0.00 0.00 0.00 0.00 0.00 0.00 0.00 0.00 0.00 0.00 0.00 0.00 0.00 0.00 0.00 0.00 0.00 0.00 0.00 0.00 0.00 0.00 0.00
0.00 0.00 0.01 0.01 0.01 0.01 0.00 0.00 0.00 0.00 0.00 0.00 0.00 0.00 0.00 0.00 0.00 0.00 0.00 0.00 0.00 0.00 0.00 0.00 0.00 0.00 0.00 0.00 0.00 0.00 0.00 0.00 0.00 0.00 0.00 0.00 0.00 0.00 0.00 0.00 0.00 0.00 0.00 0.00
MSLP
1016.30 1016.38 1015.55 1015.74 1015.83 1015.91 1015.73 1015.55 1015.18 1014.47 1014.27 1014.63 1014.83 1014.62 1014.21 1013.86 1013.42 1013.30 1013.36 1013.23 1013.20 1013.18 1013.03 1013.30 1013.56 1013.93 1014.28 1014.68 1014.93 1015.10 1015.10 1014.77 1014.43 1014.16 1013.99 1013.99 1014.03 1014.12 1014.17 1014.37 1014.69 1015.16 1015.62 1015.75
1016.39 1015.59 1015.79 1015.77 1015.69 1015.95 1016.02 1015.92 1015.66 1015.12 1014.88 1015.31 1015.41 1015.12 1014.55 1014.03 1013.27 1012.91 1012.91 1012.88 1012.95 1013.09 1013.23 1013.41 1014.04 1014.52 1015.14 1015.60 1015.94 1015.85 1015.49 1015.02 1014.64 1014.20 1013.71 1013.50 1013.62 1013.76 1013.86 1014.04 1014.43 1014.88 1015.26 1015.41
1015.69 1015.07 1015.55 1015.73 1015.69 1015.82 1015.84 1016.06 1016.20 1016.07 1015.76 1015.73 1016.08 1014.92 1014.01 1012.47 1012.02 1012.32 1012.22 1012.48 1012.71 1013.05 1013.60 1014.11 1014.50 1015.20 1015.83 1016.41 1016.59 1016.34 1015.80 1015.27 1014.77 1014.34 1013.64 1013.38 1013.38 1013.63 1013.80 1014.11 1014.36 1014.47 1014.64 1014.98
1015.80 1015.46 1015.13 1015.41 1015.33 1015.62 1015.73 1016.13 1016.45 1016.65 1016.88 1016.75 1016.51 1014.65 1013.19 1012.25 1011.60 1011.53 1011.76 1012.16 1012.57 1013.10 1013.90 1014.52 1015.15 1016.06 1016.84 1017.13 1017.01 1016.62 1016.31 1016.00 1015.43 1014.84 1014.18 1013.68 1013.81 1014.22 1014.23 1014.20 1014.43 1014.51 1014.78 1015.04
1014.72 1014.71 1014.79 1014.87 1015.07 1015.37 1015.76 1016.04 1016.40 1016.92 1017.37 1017.69 1017.23 1016.54 1012.87 1011.72 1011.60 1011.57 1011.56 1011.90 1012.47 1013.44 1014.16 1015.18 1015.95 1016.76 1017.33 1017.55 1017.51 1017.08 1016.76 1016.49 1016.03 1015.45 1015.08 1014.77 1014.95 1015.17 1015.45 1015.51 1015.37 1015.78 1016.02 1016.34
1014.95 1014.84 1014.66 1014.65 1015.09 1015.37 1016.00 1016.79 1017.28 1017.66 1018.20 1017.62 1017.20 1016.72 1012.43 1012.01 1011.19 1011.03 1011.41 1012.17 1013.00 1013.93 1014.76 1015.74 1016.63 1017.18 1017.82 1018.06 1018.02 1017.69 1017.31 1017.14 1016.62 1016.19 1015.93 1015.81 1016.00 1016.12 1016.14 1016.25 1016.36 1016.66 1016.94 1017.13
1015.25 1015.00 1014.94 1014.82 1015.04 1015.61 1016.15 1017.04 1017.98 1018.72 1018.70 1017.19 1016.10 1016.00 1012.09 1011.26 1010.77 1010.67 1011.23 1012.46 1013.40 1014.28 1015.18 1016.14 1017.01 1017.65 1018.31 1018.48 1018.50 1018.37 1018.07 1017.74 1017.40 1017.05 1016.94 1016.74 1016.72 1016.86 1017.09 1017.34 1017.64 1017.74 1017.94 1018.11
1014.71 1015.14 1014.58 1014.86 1014.81 1015.05 1015.78 1016.62 1016.91 1017.67 1017.82 1016.93 1016.01 1013.89 1011.69 1010.75 1010.44 1010.78 1011.35 1012.43 1013.55 1014.59 1015.53 1016.51 1017.36 1018.00 1018.37 1018.70 1018.82 1018.89 1018.83 1018.54 1018.19 1018.07 1018.08 1017.99 1017.84 1018.05 1018.35 1018.56 1018.77 1019.01 1019.17 1019.17
1013.81 1014.01 1013.59 1014.01 1014.29 1014.79 1015.50 1015.95 1016.40 1017.11 1017.37 1017.17 1015.44 1013.04 1011.64 1010.78 1010.67 1011.26 1011.99 1012.97 1013.96 1015.00 1015.96 1016.99 1017.54 1018.06 1018.60 1018.95 1019.16 1019.24 1019.39 1019.45 1019.20 1018.95 1018.95 1019.02 1019.09 1019.22 1019.50 1019.67 1019.68 1019.78 1019.87 1019.74
1013.00 1013.81 1013.80 1014.45 1014.74 1014.50 1014.82 1015.60 1016.56 1017.12 1017.54 1016.70 1014.47 1013.01 1010.85 1010.56 1010.91 1011.34 1012.14 1012.80 1013.77 1014.90 1015.89 1016.80 1017.44 1018.16 1018.80 1019.20 1019.45 1019.65 1019.82 1020.02 1019.97 1019.81 1019.75 1019.79 1019.77 1019.93 1020.11 1020.36 1020.45 1020.50 1020.46 1020.37
1012.92 1013.48 1014.67 1014.68 1013.89 1013.88 1014.81 1015.30 1015.63 1016.11 1016.65 1015.44 1013.87 1011.64 1009.84 1009.66 1009.61 1010.50 1011.47 1012.38 1013.33 1014.50 1015.42 1016.38 1017.25 1018.15 1018.85 1019.35 1019.73 1019.95 1020.12 1020.43 1020.48 1020.41 1020.38 1020.32 1020.39 1020.54 1020.73 1020.92 1021.11 1021.04 1021.06 1020.97
1012.54 1013.40 1014.27 1014.00 1013.86 1013.77 1013.94 1014.11 1014.75 1014.84 1015.25 1015.22 1014.16 1010.86 1009.82 1009.59 1009.80 1010.08 1011.07 1012.06 1012.95 1013.98 1015.06 1016.37 1017.38 1018.24 1018.94 1019.44 1019.80 1020.15 1020.34 1020.45 1020.63 1020.81 1020.93 1020.97 1021.12 1021.26 1021.38 1021.51 1021.52 1021.53 1021.61 1021.45
1012.13 1013.16 1014.04 1014.44 1014.63 1013.79 1013.71 1014.04 1014.14 1014.51 1014.84 1014.08 1013.54 1010.43 1009.86 1009.83 1009.91 1010.29 1010.96 1011.98 1012.94 1014.07 1015.15 1016.26 1017.13 1017.87 1018.57 1019.15 1019.54 1019.97 1020.49 1020.78 1020.84 1021.13 1021.44 1021.56 1021.75 1021.85 1021.91 1021.84 1022.06 1021.97 1022.06 1022.06
1011.74 1012.48 1012.77 1012.35 1011.91 1012.87 1013.58 1013.32 1013.63 1013.99 1014.29 1013.10 1012.49 1010.22 1009.90 1009.92 1010.03 1010.36 1011.04 1011.69 1012.51 1013.64 1014.65 1015.49 1016.48 1017.26 1017.89 1018.66 1019.24 1019.90 1020.42 1020.95 1021.18 1021.46 1021.86 1022.19 1022.29 1022.33 1022.36 1022.40 1022.40 1022.25 1022.21 1022.09
1011.61 1012.39 1012.68 1012.34 1012.52 1012.41 1012.33 1012.53 1012.89 1013.04 1012.33 1012.23 1010.73 1011.01 1008.61 1009.30 1009.97 1010.12 1010.39 1011.13 1012.19 1012.96 1013.91 1014.80 1015.51 1016.39 1017.27 1018.14 1018.95 1019.70 1020.51 1021.02 1021.34 1021.80 1022.04 1022.33 1022.54 1022.82 1022.72 1022.61 1022.82 1022.83 1022.60 1022.59
1011.65 1012.35 1012.85 1012.73 1012.49 1012.53 1012.12 1012.11 1012.04 1011.64 1011.35 1011.36 1010.55 1009.77 1008.17 1008.91 1009.03 1009.12 1009.56 1010.18 1010.98 1012.07 1012.94 1013.52 1014.54 1015.60 1016.59 1017.65 1018.74 1019.52 1020.37 1020.85 1021.25 1021.83 1022.14 1022.34 1022.56 1022.82 1022.95 1022.91 1022.88 1022.96 1023.08 1023.24
1011.74 1012.35 1013.07 1012.79 1012.36 1012.56 1012.27 1011.04 1010.49 1010.77 1010.28 1009.90 1009.52 1008.28 1008.59 1008.10 1007.55 1008.04 1008.29 1009.04 1009.67 1010.34 1011.17 1012.14 1012.91 1014.31 1015.60 1016.80 1017.78 1019.13 1020.12 1020.74 1021.24 1021.82 1022.24 1022.46 1022.64 1023.02 1023.47 1023.36 1023.30 1023.40 1023.32 1023.46
1011.70 1012.35 1013.08 1012.62 1012.50 1011.49 1009.78 1009.41 1009.43 1009.10 1008.76 1008.63 1008.48 1008.01 1007.04 1006.54 1006.50 1007.18 1007.20 1007.68 1008.49 1009.14 1009.57 1010.68 1012.31 1013.65 1015.13 1016.45 1017.82 1019.03 1020.13 1020.78 1021.25 1021.78 1022.34 1022.79 1022.95 1023.25 1023.61 1023.67 1023.54 1023.60 1023.62 1023.73
1011.99 1012.41 1012.66 1012.52 1011.43 1010.59 1009.87 1008.24 1007.89 1007.87 1007.38 1007.74 1007.63 1006.53 1005.79 1006.27 1006.87 1006.39 1005.85 1006.63 1007.26 1007.68 1008.64 1009.70 1011.31 1013.31 1015.14 1016.53 1017.98 1019.19 1019.97 1020.60 1021.19 1021.92 1022.34 1022.72 1022.81 1023.39 1023.80 1023.87 1024.01 1024.01 1023.93 1023.80
1012.61 1012.56 1012.91 1012.25 1011.20 1009.91 1008.08 1006.97 1007.10 1007.51 1007.24 1006.03 1006.29 1006.84 1006.33 1005.89 1006.75 1005.64 1004.65 1006.10 1006.50 1007.09 1008.20 1010.14 1011.97 1013.91 1015.43 1016.76 1017.94 1019.13 1019.91 1020.43 1021.02 1021.65 1022.14 1022.50 1023.01 1023.14 1023.70 1024.13 1024.01 1024.14 1023.93 1024.01
1012.47 1012.61 1011.94 1011.22 1010.34 1009.35 1007.67 1006.77 1006.67 1007.83 1006.83 1005.88 1006.37 1006.68 1006.44 1006.64 1006.31 1005.46 1006.43 1007.01 1007.57 1008.30 1009.45 1011.11 1012.90 1014.44 1015.91 1017.06 1018.06 1019.12 1020.09 1020.65 1021.26 1021.80 1022.52 1022.91 1023.51 1023.70 1023.65 1024.24 1024.46 1024.15 1023.97 1024.65
1010.49 1010.92 1010.84 1010.62 1009.76 1008.58 1006.82 1007.03 1006.99 1005.98 1005.92 1005.74 1006.22 1006.58 1006.81 1007.07 1007.30 1007.64 1008.03 1008.63 1009.47 1010.19 1011.49 1012.79 1013.90 1015.41 1016.46 1017.34 1018.59 1019.38 1020.18 1021.14 1021.79 1022.05 1022.86 1023.42 1023.72 1023.67 1024.33 1024.26 1024.06 1024.16 1024.64 1024.76
1009.79 1008.54 1008.48 1008.30 1007.27 1006.87 1006.35 1006.39 1006.10 1006.62 1006.80 1006.48 1006.55 1006.51 1007.03 1007.63 1007.97 1008.64 1009.44 1010.23 1011.16 1011.78 1012.59 1013.65 1014.75 1016.08 1017.08 1017.83 1018.53 1019.62 1020.58 1021.44 1022.07 1022.46 1023.16 1023.58 1023.91 1024.42 1024.07 1023.80 1024.25 1024.75 1024.91 1024.95
1008.15 1007.81 1007.96 1007.98 1007.25 1006.93 1006.71 1006.66 1006.52 1006.46 1006.86 1006.64 1006.77 1007.03 1007.54 1007.82 1008.31 1008.76 1009.82 1011.27 1011.89 1013.00 1013.99 1015.05 1015.92 1016.79 1017.70 1018.38 1019.13 1019.86 1020.85 1021.60 1022.47 1022.93 1023.36 1023.58 1023.90 1024.05 1023.95 1023.93 1024.33 1024.74 1025.20 1025.24
1007.93 1007.88 1007.63 1007.29 1007.20 1007.22 1007.07 1006.92 1007.48 1007.55 1007.63 1007.70 1007.95 1008.13 1008.41 1008.80 1008.19 1008.88 1009.71 1011.45 1012.50 1013.40 1014.67 1015.38 1016.49 1017.50 1018.29 1019.00 1020.08 1020.74 1021.52 1022.19 1022.77 1023.01 1023.28 1023.47 1023.54 1023.55 1024.17 1024.22 1024.63 1024.92 1025.28 1025.23
1007.51 1007.54 1008.12 1007.68 1007.76 1007.85 1007.90 1008.52 1008.74 1008.98 1009.06 1008.94 1008.77 1008.76 1009.07 1009.95 1009.51 1007.35 1010.44 1012.02 1013.08 1013.85 1015.01 1015.75 1016.63 1017.71 1018.68 1019.59 1020.79 1021.71 1022.21 1022.34 1022.77 1023.24 1023.25 1023.32 1023.23 1023.51 1024.36 1024.75 1024.95 1025.04 1025.32 1025.37
Thickness
5598 5593 5600 5611 5617 5623 5625 5624 5627 5646 5658 5647 5646 5652 5669 5677 5683 5685 5691 5694 5699 5703 5710 5709 5706 5708 5708 5703 5702 5700 5700 5701 5702 5703 5703 5703 5699 5696 5695 5692 5687 5681 5674 5669
5585 5588 5604 5612 5614 5612 5613 5611 5613 5633 5643 5635 5636 5639 5657 5666 5678 5686 5686 5689 5694 5696 5698 5701 5697 5697 5690 5688 5685 5685 5687 5690 5692 5694 5697 5699 5696 5692 5689 5684 5680 5675 5669 5664
5578 5597 5600 5598 5600 5599 5605 5602 5603 5610 5626 5627 5622 5630 5650 5675 5679 5681 5688 5691 5692 5690 5688 5687 5687 5683 5678 5673 5672 5674 5676 5679 5682 5684 5689 5689 5688 5684 5680 5675 5671 5668 5663 5657
5569 5586 5591 5588 5591 5596 5589 5603 5602 5601 5597 5589 5615 5600 5647 5664 5677 5678 5682 5684 5683 5683 5678 5678 5674 5667 5661 5658 5658 5660 5662 5662 5666 5670 5674 5678 5673 5666 5665 5664 5659 5657 5650 5645
5576 5580 5581 5585 5590 5594 5589 5597 5596 5591 5583 5580 5591 5582 5635 5655 5656 5667 5676 5678 5678 5669 5669 5662 5657 5652 5646 5643 5642 5644 5646 5647 5650 5654 5655 5655 5651 5648 5643 5640 5639 5634 5630 5624
5564 5573 5576 5583 5584 5585 5584 5577 5576 5576 5567 5560 5585 5581 5619 5640 5654 5664 5670 5665 5663 5659 5654 5647 5641 5637 5629 5626 5625 5627 5630 5630 5634 5636 5637 5635 5631 5628 5625 5622 5618 5614 5609 5603
5552 5558 5568 5575 5570 5573 5571 5561 5542 5530 5531 5550 5594 5579 5624 5643 5655 5663 5665 5655 5649 5645 5640 5634 5626 5618 5614 5611 5609 5611 5612 5613 5615 5617 5616 5616 5614 5610 5605 5601 5595 5591 5586 5581
5537 5533 5556 5565 5564 5564 5562 5558 5544 5538 5540 5556 5578 5574 5609 5642 5650 5651 5649 5643 5636 5632 5626 5617 5609 5603 5600 5596 5594 5592 5592 5593 5596 5595 5594 5592 5591 5586 5581 5576 5571 5565 5560 5556
5541 5541 5560 5563 5565 5563 5552 5544 5565 5543 5535 5531 5561 5596 5611 5631 5632 5628 5627 5624 5619 5615 5606 5597 5593 5588 5583 5579 5577 5576 5575 5573 5574 5574 5572 5569 5566 5562 5556 5551 5548 5543 5538 5536
5540 5528 5545 5544 5547 5552 5550 5554 5533 5525 5525 5512 5553 5571 5597 5613 5613 5613 5611 5611 5610 5602 5593 5585 5577 5570 5564 5561 5560 5560 5558 5554 5553 5553 5552 5549 5547 5542 5537 5531 5527 5523 5520 5518
5533 5528 5520 5526 5536 5543 5539 5532 5537 5539 5529 5537 5551 5568 5619 5620 5614 5609 5606 5604 5601 5589 5580 5574 5565 5554 5548 5545 5543 5541 5539 5536 5535 5535 5532 5530 5526 5521 5516 5512 5508 5505 5503 5501
5530 5519 5503 5521 5535 5539 5536 5536 5534 5529 5527 5525 5535 5559 5611 5606 5604 5601 5597 5594 5589 5577 5568 5558 5548 5539 5532 5528 5525 5523 5521 5519 5517 5514 5511 5508 5504 5500 5498 5495 5492 5490 5487 5486
5522 5504 5495 5500 5508 5520 5517 5527 5531 5529 5506 5524 5521 5560 5605 5586 5589 5587 5581 5575 5569 5560 5551 5541 5533 5528 5523 5516 5513 5508 5505 5501 5499 5495 5491 5489 5486 5484 5481 5480 5476 5474 5472 5470
5516 5508 5507 5514 5532 5516 5508 5520 5521 5516 5507 5521 5521 5554 5576 5569 5571 5570 5564 5560 5553 5546 5540 5530 5523 5518 5515 5507 5502 5497 5493 5486 5482 5478 5474 5471 5470 5469 5466 5465 5463 5461 5460 5459
5501 5493 5502 5514 5515 5514 5515 5512 5510 5506 5521 5509 5540 5526 5570 5572 5559 5551 5551 5549 5541 5539 5532 5524 5517 5510 5503 5497 5491 5484 5476 5471 5468 5463 5460 5457 5455 5452 5451 5450 5447 5444 5444 5441
5494 5478 5487 5482 5506 5502 5501 5504 5505 5512 5518 5511 5521 5524 5567 5560 5553 5550 5551 5539 5540 5534 5526 5519 5511 5504 5499 5489 5477 5471 5463 5459 5455 5450 5446 5444 5442 5439 5436 5435 5433 5430 5427 5424
5488 5478 5473 5475 5491 5480 5466 5498 5509 5505 5509 5516 5508 5537 5543 5542 5557 5552 5547 5532 5531 5531 5526 5516 5515 5504 5493 5482 5472 5460 5452 5445 5442 5437 5433 5430 5428 5423 5418 5417 5416 5413 5412 5409
5479 5472 5468 5470 5454 5454 5500 5514 5509 5508 5514 5516 5516 5526 5543 5549 5551 5538 5539 5529 5528 5529 5528 5518 5505 5494 5481 5469 5457 5446 5437 5432 5429 5424 5419 5415 5412 5409 5404 5402 5401 5399 5396 5392
5465 5464 5463 5460 5465 5476 5482 5510 5514 5505 5509 5514 5511 5529 5541 5538 5524 5524 5543 5537 5526 5528 5523 5513 5499 5481 5463 5451 5440 5433 5428 5423 5418 5411 5407 5403 5401 5395 5390 5388 5385 5382 5381 5378
5449 5450 5448 5449 5451 5448 5504 5519 5512 5502 5476 5529 5524 5514 5521 5528 5504 5524 5550 5529 5525 5518 5508 5491 5474 5458 5446 5436 5430 5422 5416 5413 5408 5402 5396 5391 5386 5384 5378 5373 5371 5368 5366 5362
5441 5434 5436 5443 5448 5444 5485 5506 5509 5461 5491 5516 5510 5505 5512 5507 5511 5524 5506 5500 5497 5488 5480 5465 5453 5442 5431 5423 5417 5411 5403 5398 5392 5386 5379 5375 5371 5365 5365 5358 5354 5353 5351 5345
5440 5425 5414 5427 5423 5429 5492 5491 5482 5502 5492 5500 5496 5495 5490 5483 5485 5481 5469 5462 5459 5456 5448 5442 5433 5422 5415 5410 5402 5396 5389 5379 5372 5370 5364 5358 5354 5351 5345 5343 5343 5340 5332 5329
5414 5439 5430 5432 5432 5461 5471 5472 5477 5460 5464 5472 5478 5477 5469 5461 5467 5456 5451 5444 5437 5434 5428 5422 5414 5404 5398 5394 5389 5381 5372 5363 5357 5353 5347 5343 5339 5333 5332 5332 5327 5320 5315 5311
5432 5437 5428 5427 5437 5439 5442 5442 5451 5455 5447 5455 5454 5455 5449 5449 5447 5443 5432 5423 5420 5414 5405 5398 5391 5386 5379 5375 5371 5364 5353 5347 5340 5334 5331 5328 5325 5321 5320 5318 5312 5304 5296 5292
5410 5415 5419 5418 5421 5424 5428 5431 5418 5417 5420 5421 5419 5422 5425 5427 5434 5429 5423 5408 5400 5396 5387 5383 5375 5367 5360 5355 5345 5340 5334 5328 5324 5320 5317 5315 5311 5309 5303 5300 5292 5286 5279 5276
5407 5408 5397 5403 5411 5406 5415 5383 5380 5381 5388 5391 5397 5400 5400 5398 5407 5426 5400 5390 5381 5375 5368 5364 5358 5349 5341 5333 5324 5317 5313 5312 5309 5304 5302 5300 5299 5294 5285 5278 5272 5268 5262 5259